SL-16 DEB, 22619

Orbit data source: Space-Track

SL-16 DEB, 22619 is space debris in LEO originally from a launch on Fri, 26 Mar 1993 UTC launched from the Tyuratam Missile And Space Complex (TTMTR). Debris objects in space refer to the collection of defunct objects orbiting the Earth. Examples of debris include non-operational satellites, rocket bodies, and fragments generated from explosions, collisions, or faulty payload assembly.

Loading next visibility...
SL-16 DEB details
Identifier
22619, 1993-016AD
Orbit
LEO
Last TLE update11 hours ago
Origin
Flag of CISRVSN RF (CIS)
ManufacturerUnknown
MissionSpacecraft
Bus & MotorUnknown
MassUnknown
Launch date (UTC)
1993-03-26 (32 years ago)
Launch vehicleUnknown
Launch site
Tyuratam Missile And Space Complex (TTMTR)
Object type
Payload
Rocket body
Debris
Shape & HBRUnknown
Radar Cross SectionMedium (>0.1 m² and <1 m²)

Expand to show TLE details & history

TLE from 11 hours ago
0 SL-16 DEB
1 22619U 93016AD  24361.02821104  .00000073  00000-0  10928-3 0  9996
2 22619  70.9987 216.7033 0186570 188.8572 322.4223 13.73798720591189
Epoch: 2024-12-26T00:40Z
Definitive object data (Epoch: 2024-12-26T00:40:37.433Z)
Latitude28.31272°
Longitude-79.10017°
Altitude880.977 km
Speed7.469 km/s
True Right ascension01h 44m 16s
True Declination28° 10' 18"
Sunlit
Object was in partial shadow at TLE epoch
Visualization TLE readout
Latitude-8.84358°
Longitude107.54275°
Altitude1,120.801 km
Speed7.227 km/s
Apparent Right ascension16h 54m 01s
Apparent Declination-47° 00' 41"
Sunlit
Object is in daylight
Visualization observer readout
Local Sidereal Time11:29:06
Azimuth132.97° SE
Elevation-22.932°
Doppler factor1
Orbital elements
Apogee altitude1,121.283 km
Perigee altitude846.575 km
Semi-major axis7,362.066 km
Eccentricity0.018657
Inclination70.9987°
RAAN216.7033°
Arg. of periapsis188.8572°
True anomaly321.0941°
Mean anomaly322.4223°
Eccentric anomaly321.76067°
Mean motion3.43592 °/min
BSTAR0.00010928
Orbital period104.78 mins
Loading maneuver chart data...
Loading historical data...
Loading historical data...
Loading historical data...
Loading historical data...
Loading historical data...
Loading historical data...
Loading historical data...

SL-16 DEB Visibility forecast

Observer location: undefined°, undefined

Span
Click to sort rows by Start time (UTC) header in descending order
Start Az.
Max El. time (UTC)
Max El. Az.
Max El.
End time (UTC)
End Az.
11 mins2024-12-26 15:47:38.395Z190.901° SSW2024-12-26 15:52:38.395Z116.133° SE43.827°2024-12-26 15:58:38.395Z27.73° NE
9 mins2024-12-26 17:36:38.395Z267.226° W2024-12-26 17:40:38.395Z308.832° NW21.179°2024-12-26 17:45:38.395Z357.824° N
9 mins2024-12-27 00:59:38.395Z356.68° N2024-12-27 01:03:38.395Z55.177° ENE33.489°2024-12-27 01:08:38.395Z127.168° SE
7 mins2024-12-27 02:47:38.395Z301.461° NW2024-12-27 02:50:38.395Z260.033° W24.799°2024-12-27 02:54:38.395Z207.738° SW
|